GAOFEN 14

导读

高分十四号(GAOFEN 14)是中国于2020年12月6日在西昌卫星发射中心,由长征三号乙运载火箭成功发射入轨的光学立体测绘卫星,属于中国高分辨率对地观测系统国家科技重大专项项目。它可获取全球高精度立体影像,生产各类地形测绘产品,能够为“一带一路”建设等提供可靠的基础地理信息支撑。

基本信息
目录编号:
47231
目录名称:
GAOFEN 14
国际标识:
2020-092A
轨道中心:
EARTH
卫星名称:
GAOFEN 14
卫星全名:
--
卫星状态:
在轨 (已飞行2105 天)
发射日期:
2020-12-06 UTC
国别 :
中国 (CN)
星等 :
--
轨道信息
数据来源 国际轨道数据
星历时间: 2026-09-11T01:45:22+0800
8小时前
查看轨道信息
半长轴: 6866.783km
偏心率: 0.0004833
轨道倾角: 97.466°
近地点辐角 196.740°
升交点赤经 323.850°
平近点角 163.368°
近地点: 485.327km
远地点: 491.965km
周期: 94.382分钟
每日圈数: 15.257129
详细信息
使用方式:
暂无
2D轨道图
3D轨道图
轨道高度分析图
轨道倾角分析图
轨道综合分析图
查看轨道综合分析图
交会数据列表
事件ID 空间交会对象 最接近时刻(TCA) 交会距离 交会风险概率(CRP) 交会风险指数(CRI) 操作
CDM_260913-104104-723106-398521
OBJECT D (63985)
2026-09-13T
10:41:18+0000
1.057 km
极远距离
3.411175E-6 低风险 0.46
CDM_260913-151704-097404-723121
2026-09-13T
15:17:26+0000
1.778 km
极远距离
3.099756E-6 低风险 0.45
CDM_260913-051004-723106-398522
OBJECT D (63985)
2026-09-13T
05:10:44+0000
2.055 km
极远距离
5.36692E-7 极低风险 0.3
CDM_260913-121504-723106-671421
2026-09-13T
12:15:45+0000
2.621 km
极远距离
3.176826E-7 极低风险 0.25
与全量物体交会距离演化趋势
与全量物体交会风险概率演化趋势